Regional Weather Roundup
Issued by NWS Cleveland, OH

Home | Current Version | Previous Version | Text Only | Print | Product List | Glossary Off
Versions: 1 2 3 4 5 6 7 8 9 10 11 12 13 14 15 16 17 18 19 20 21 22 23 24 25 26 27 28 29 30 31 32 33 34 35 36 37 38 39 40 41 42 43 44 45 46 47 48 49 50

000
ASUS41 KCLE 231310
RWRCLE
OHIO REGIONAL WEATHER ROUNDUP
NATIONAL WEATHER SERVICE CLEVELAND, OH
900 AM EDT WED APR 23 2014

NOTE: "FAIR" INDICATES FEW OR NO CLOUDS BELOW 12,000 FEET WITH NO
SIGNIFICANT WEATHER AND/OR OBSTRUCTIONS TO VISIBILITY.

OHZ001>008-015>018-024>027-034-035-043-044-231400-
   NORTHWEST OHIO

CITY           SKY/WX    TMP DP  RH WIND       PRES   REMARKS
DEFIANCE       MOSUNNY   40  29  64 N9        30.10R
FINDLAY        MOSUNNY   40  30  67 N12       30.07R
TOLEDO EXPRESS MOSUNNY   37  28  70 N13       30.08R
TOLEDO EXEC    CLOUDY    38  28  67 NW14      30.08R
LIMA           SUNNY     38  29  70 N14       30.07R
$$

OHZ009>014-019>023-028>033-038-089-231400-
   NORTHEAST OHIO

CITY           SKY/WX    TMP DP  RH WIND       PRES   REMARKS
CLE-HOPKINS    CLOUDY    41  31  67 NW13      30.05R
CLE-LAKEFRONT  CLOUDY    39  33  79 N17       30.02R
CUY CO. ARPT   CLOUDY    37  32  81 N12G20    30.02R
LORAIN-ELYRIA  CLOUDY    42  31  64 N16G23    30.04R
ASHTABULA      CLOUDY    36  30  79 NW10      29.98R
AKRON-CANTON   CLOUDY    40  32  73 NW13      30.00R
WOOSTER        CLOUDY    39  30  70 N17       30.02R
MANSFIELD      CLOUDY    37  31  78 NW9       30.03R
YOUNGSTOWN     LGT RAIN  37  31  78 NW10      29.96R
$$

OHZ042-051>053-060>062-070>072-077>081-231400-
  SOUTHWEST OHIO

CITY           SKY/WX    TMP DP  RH WIND       PRES   REMARKS
CINC-COVINGTON SUNNY     42  30  62 N12       30.08R
CINC-LUNKEN    SUNNY     44  31  60 N10       30.11R
HAMILTON       SUNNY     44  32  62 N8        30.11R
DAYTON         SUNNY     41  30  65 N12       30.09R
WRIGHT-PAT AFB SUNNY     41  29  64 N13       30.07R
DAYTON GENERAL SUNNY     42  30  62 N9        30.07R
WILMINGTON     SUNNY     41  29  62 N13       30.06R
$$

OHZ036-037-039>041-045>050-054>059-063>069-073>076-082>088-231400-
  CENTRAL AND SOUTHEAST OHIO

CITY           SKY/WX    TMP DP  RH WIND       PRES   REMARKS
COLUMBUS       MOSUNNY   43  30  60 NW8       30.05R
OSU AIRPORT    SUNNY     40  30  67 NW12      30.05R
BOLTON FIELD   SUNNY     39  32  75 N14       30.06R
RICKENBACK AFB SUNNY     43  29  56 N13       30.06R
NEWARK         CLOUDY    41  30  65 NW7       30.04R
MARION         SUNNY     39  30  70 N14       30.05R
LANCASTER      SUNNY     43  31  62 N12       30.05R
ZANESVILLE     CLOUDY    43  31  62 N8        30.01R
NEW PHILLY     CLOUDY    41  30  65 N13       30.02R
$$



USA.gov is the U.S. government's official web portal to all federal, state and local government web resources and services.